| time (UTC) | temp F | wind direction | speed knots | gust knots | rain 1hr in | rain 24hr in | rain mn in | humidity % | barometer mb |
| 20260507202127 | 69 | 166 | 2.6 | 7.8 | 0.00 | 0.00 | 0.00 | 53 | 1013.9 |
| 20260507201622 | 68 | 175 | 3.5 | 5.2 | 0.00 | 0.00 | 0.00 | 54 | 1014.1 |
| 20260507201119 | 68 | 191 | 2.6 | 4.3 | 0.00 | 0.00 | 0.00 | 53 | 1014.1 |
| 20260507200615 | 69 | 175 | 1.7 | 5.2 | 0.00 | 0.00 | 0.00 | 53 | 1014.1 |
| 20260507200111 | 69 | 220 | 2.6 | 3.5 | 0.00 | 0.00 | 0.00 | 52 | 1014.1 |
| 20260507195608 | 68 | 228 | 1.7 | 3.5 | 0.00 | 0.00 | 0.00 | 51 | 1014.2 |
| 20260507195105 | 68 | 212 | 0.9 | 4.3 | 0.00 | 0.00 | 0.00 | 55 | 1014.3 |
| 20260507194601 | 68 | 168 | 4.3 | 4.3 | 0.00 | 0.00 | 0.00 | 51 | 1014.4 |
| 20260507194057 | 68 | 290 | 1.7 | 3.5 | 0.00 | 0.00 | 0.00 | 52 | 1014.6 |
| 20260507193555 | 68 | 220 | 0.9 | 5.2 | 0.00 | 0.00 | 0.00 | 54 | 1014.6 |
| 20260507193052 | 67 | 160 | 3.5 | 7.8 | 0.00 | 0.00 | 0.00 | 54 | 1014.7 |
| 20260507192548 | 67 | 269 | 3.5 | 5.2 | 0.00 | 0.00 | 0.00 | 57 | 1014.6 |
| 20260507192045 | 67 | 188 | 3.5 | 4.3 | 0.00 | 0.00 | 0.00 | 57 | 1014.7 |
| 20260507191540 | 65 | 132 | 1.7 | 3.5 | 0.00 | 0.00 | 0.00 | 55 | 1014.8 |
| 20260507191037 | 65 | 211 | 0.0 | 3.5 | 0.00 | 0.00 | 0.00 | 60 | 1015.0 |
| 20260507190534 | 66 | 203 | 2.6 | 5.2 | 0.00 | 0.00 | 0.00 | 54 | 1015.1 |
| 20260507190033 | 66 | 224 | 0.9 | 6.1 | 0.00 | 0.00 | 0.00 | 63 | 1015.3 |
| 20260507185531 | 65 | 175 | 0.9 | 5.2 | 0.00 | 0.00 | 0.00 | 56 | 1015.3 |
| 20260507185027 | 65 | 223 | 2.6 | 4.3 | 0.00 | 0.00 | 0.00 | 54 | 1015.5 |
| 20260507184526 | 65 | 187 | 0.9 | 4.3 | 0.00 | 0.00 | 0.00 | 55 | 1015.5 |
| 20260507184024 | 66 | 241 | 0.0 | 5.2 | 0.00 | 0.00 | 0.00 | 55 | 1015.7 |
| 20260507183519 | 66 | 257 | 6.1 | 8.7 | 0.00 | 0.00 | 0.00 | 53 | 1015.6 |
| 20260507183017 | 66 | 174 | 1.7 | 3.5 | 0.00 | 0.00 | 0.00 | 60 | 1015.6 |
| 20260507182513 | 66 | 259 | 2.6 | 5.2 | 0.00 | 0.00 | 0.00 | 62 | 1015.7 |
| 20260507182009 | 65 | 229 | 4.3 | 4.3 | 0.00 | 0.00 | 0.00 | 56 | 1015.6 |
| 20260507181506 | 64 | 258 | 0.0 | 4.3 | 0.00 | 0.00 | 0.00 | 61 | 1015.6 |
| 20260507181001 | 64 | 264 | 2.6 | 4.3 | 0.00 | 0.00 | 0.00 | 59 | 1016.0 |
| 20260507180458 | 63 | 155 | 2.6 | 4.3 | 0.00 | 0.00 | 0.00 | 59 | 1016.2 |
| 20260507175954 | 63 | 250 | 3.5 | 7.0 | 0.00 | 0.00 | 0.00 | 58 | 1016.0 |
| 20260507175451 | 64 | 254 | 2.6 | 9.6 | 0.00 | 0.00 | 0.00 | 59 | 1016.2 |
| 20260507174949 | 64 | 232 | 5.2 | 11.3 | 0.00 | 0.00 | 0.00 | 57 | 1016.3 |
| 20260507174446 | 64 | 147 | 3.5 | 3.5 | 0.00 | 0.00 | 0.00 | 55 | 1016.2 |
| 20260507173943 | 64 | 194 | 0.0 | 8.7 | 0.00 | 0.00 | 0.00 | 58 | 1016.4 |
| 20260507173440 | 64 | 232 | 1.7 | 5.2 | 0.00 | 0.00 | 0.00 | 65 | 1016.2 |
| 20260507172937 | 63 | 119 | 1.7 | 3.5 | 0.00 | 0.00 | 0.00 | 59 | 1016.5 |
| 20260507172434 | 61 | 169 | 2.6 | 6.1 | 0.00 | 0.00 | 0.00 | 59 | 1016.6 |
| 20260507171930 | 63 | 208 | 1.7 | 4.3 | 0.00 | 0.00 | 0.00 | 60 | 1016.5 |
| 20260507171426 | 63 | 240 | 1.7 | 3.5 | 0.00 | 0.00 | 0.00 | 63 | 1016.5 |
| 20260507170924 | 63 | 249 | 6.1 | 10.4 | 0.00 | 0.00 | 0.00 | 59 | 1016.7 |
| 20260507170420 | 62 | 236 | 1.7 | 5.2 | 0.00 | 0.00 | 0.00 | 62 | 1017.0 |
| 20260507165916 | 62 | 226 | 1.7 | 5.2 | 0.00 | 0.00 | 0.00 | 60 | 1016.9 |
| 20260507165412 | 64 | 200 | 3.5 | 4.3 | 0.00 | 0.00 | 0.00 | 59 | 1017.1 |
| 20260507164908 | 63 | 151 | 1.7 | 4.3 | 0.00 | 0.00 | 0.00 | 60 | 1017.2 |
| 20260507164406 | 63 | 224 | 3.5 | 3.5 | 0.00 | 0.00 | 0.00 | 59 | 1017.2 |
| 20260507163903 | 62 | 234 | 7.0 | 11.3 | 0.00 | 0.00 | 0.00 | 58 | 1017.3 |
| 20260507163400 | 61 | 205 | 2.6 | 10.4 | 0.00 | 0.00 | 0.00 | 57 | 1017.1 |
| 20260507162856 | 62 | 176 | 3.5 | 6.1 | 0.00 | 0.00 | 0.00 | 60 | 1017.2 |
| 20260507162352 | 63 | 239 | 3.5 | 7.8 | 0.00 | 0.00 | 0.00 | 56 | 1017.2 |
| 20260507161849 | 62 | 216 | 0.9 | 3.5 | 0.00 | 0.00 | 0.00 | 59 | 1017.1 |
| 20260507161345 | 62 | 230 | 3.5 | 8.7 | 0.00 | 0.00 | 0.00 | 63 | 1017.4 |
| 20260507160842 | 61 | 233 | 2.6 | 5.2 | 0.00 | 0.00 | 0.00 | 61 | 1017.4 |
| 20260507160338 | 63 | 188 | 2.6 | 4.3 | 0.00 | 0.00 | 0.00 | 58 | 1017.4 |
| 20260507155835 | 61 | 261 | 0.9 | 7.0 | 0.00 | 0.00 | 0.00 | 66 | 1017.2 |
| 20260507155330 | 61 | 248 | 2.6 | 12.2 | 0.00 | 0.00 | 0.00 | 59 | 1017.3 |
| 20260507154827 | 62 | 238 | 3.5 | 5.2 | 0.00 | 0.00 | 0.00 | 58 | 1017.5 |
| 20260507154325 | 62 | 161 | 2.6 | 5.2 | 0.00 | 0.00 | 0.00 | 60 | 1017.5 |
| 20260507153821 | 62 | 277 | 0.0 | 7.0 | 0.00 | 0.00 | 0.00 | 60 | 1017.4 |
| 20260507153318 | 62 | 191 | 0.0 | 2.6 | 0.00 | 0.00 | 0.00 | 60 | 1017.6 |
| 20260507152814 | 62 | 235 | 2.6 | 4.3 | 0.00 | 0.00 | 0.00 | 64 | 1017.5 |
| 20260507152311 | 61 | 214 | 2.6 | 3.5 | 0.00 | 0.00 | 0.00 | 64 | 1017.6 |
| 20260507151806 | 60 | 253 | 3.5 | 7.8 | 0.00 | 0.00 | 0.00 | 64 | 1017.8 |
| 20260507151303 | 61 | 191 | 1.7 | 3.5 | 0.00 | 0.00 | 0.00 | 67 | 1017.9 |
| 20260507150800 | 60 | 216 | 1.7 | 10.4 | 0.00 | 0.00 | 0.00 | 64 | 1017.8 |
| 20260507150257 | 60 | 200 | 1.7 | 3.5 | 0.00 | 0.00 | 0.00 | 64 | 1017.8 |
| 20260507145753 | 60 | 188 | 0.0 | 3.5 | 0.00 | 0.00 | 0.00 | 65 | 1017.7 |
| 20260507145249 | 60 | 195 | 0.9 | 3.5 | 0.00 | 0.00 | 0.00 | 66 | 1017.9 |
| 20260507144746 | 59 | 231 | 1.7 | 3.5 | 0.00 | 0.00 | 0.00 | 71 | 1017.9 |
| 20260507144244 | 59 | 240 | 3.5 | 6.1 | 0.00 | 0.00 | 0.00 | 65 | 1018.1 |
| 20260507143740 | 59 | 161 | 3.5 | 4.3 | 0.00 | 0.00 | 0.00 | 68 | 1017.9 |
| 20260507143238 | 60 | 266 | 0.9 | 3.5 | 0.00 | 0.00 | 0.00 | 68 | 1017.8 |
| 20260507142734 | 59 | 274 | 0.0 | 2.6 | 0.00 | 0.00 | 0.00 | 68 | 1017.9 |
| 20260507142230 | 59 | 88 | 2.6 | 3.5 | 0.00 | 0.00 | 0.00 | 70 | 1017.9 |
| 20260507141727 | 58 | 225 | 0.9 | 3.5 | 0.00 | 0.00 | 0.00 | 69 | 1018.2 |
| 20260507141224 | 57 | 16 | 1.7 | 7.8 | 0.00 | 0.00 | 0.00 | 71 | 1018.2 |
| 20260507140720 | 59 | 192 | 0.9 | 2.6 | 0.00 | 0.00 | 0.00 | 69 | 1018.1 |
| 20260507140218 | 58 | 175 | 1.7 | 2.6 | 0.00 | 0.00 | 0.00 | 69 | 1018.1 |
| 20260507135714 | 58 | 138 | 1.7 | 2.6 | 0.00 | 0.00 | 0.00 | 68 | 1018.2 |
| 20260507135212 | 57 | 119 | 0.0 | 2.6 | 0.00 | 0.00 | 0.00 | 71 | 1018.1 |
| 20260507134708 | 57 | 157 | 1.7 | 3.5 | 0.00 | 0.00 | 0.00 | 68 | 1018.1 |
| 20260507134204 | 57 | 40 | 0.0 | 2.6 | 0.00 | 0.00 | 0.00 | 70 | 1018.2 |
| 20260507133700 | 57 | 280 | 0.0 | 1.7 | 0.00 | 0.00 | 0.00 | 71 | 1017.9 |
| 20260507133158 | 56 | 115 | 0.9 | 2.6 | 0.00 | 0.00 | 0.00 | 71 | 1018.2 |
| 20260507132655 | 56 | 333 | 1.7 | 1.7 | 0.00 | 0.00 | 0.00 | 72 | 1018.1 |
| 20260507132151 | 55 | 147 | 0.9 | 1.7 | 0.00 | 0.00 | 0.00 | 74 | 1018.1 |
| 20260507131648 | 55 | 156 | 1.7 | 2.6 | 0.00 | 0.00 | 0.00 | 71 | 1018.2 |
| 20260507131145 | 54 | 154 | 0.0 | 2.6 | 0.00 | 0.00 | 0.00 | 74 | 1018.2 |
| 20260507130642 | 53 | 129 | 2.6 | 2.6 | 0.00 | 0.00 | 0.00 | 74 | 1018.3 |
| 20260507130140 | 53 | 209 | 0.0 | 1.7 | 0.00 | 0.00 | 0.00 | 76 | 1018.4 |
| 20260507125638 | 52 | 86 | 1.7 | 1.7 | 0.00 | 0.00 | 0.00 | 76 | 1018.4 |
| 20260507125136 | 51 | 154 | 0.0 | 1.7 | 0.00 | 0.00 | 0.00 | 78 | 1018.5 |
| 20260507124632 | 50 | 170 | 0.9 | 1.7 | 0.00 | 0.00 | 0.00 | 78 | 1018.4 |
| 20260507124130 | 50 | 121 | 0.0 | 1.7 | 0.00 | 0.00 | 0.00 | 79 | 1018.3 |
| 20260507123628 | 50 | 246 | 0.0 | 1.7 | 0.00 | 0.00 | 0.00 | 79 | 1018.3 |
| 20260507123124 | 49 | 123 | 0.0 | 1.7 | 0.00 | 0.00 | 0.00 | 79 | 1018.3 |
| 20260507122620 | 48 | 147 | 0.9 | 1.7 | 0.00 | 0.00 | 0.00 | 80 | 1018.5 |
| 20260507122116 | 48 | 127 | 0.0 | 2.6 | 0.00 | 0.00 | 0.00 | 82 | 1018.4 |
| 20260507121612 | 47 | 243 | 0.9 | 2.6 | 0.00 | 0.00 | 0.00 | 82 | 1018.5 |
| 20260507121108 | 46 | 111 | 0.0 | 2.6 | 0.00 | 0.00 | 0.00 | 83 | 1018.5 |
| 20260507120604 | 46 | 73 | 0.9 | 1.7 | 0.00 | 0.00 | 0.00 | 85 | 1018.3 |
| 20260507120101 | 45 | 127 | 1.7 | 1.7 | 0.00 | 0.00 | 0.00 | 85 | 1018.2 |
| 20260507115557 | 44 | 143 | 0.0 | 0.9 | 0.00 | 0.00 | 0.00 | 87 | 1018.2 |
| 20260507115053 | 44 | 89 | 0.0 | 1.7 | 0.00 | 0.00 | 0.00 | 87 | 1018.2 |
| 20260507114549 | 43 | 73 | 0.0 | 0.9 | 0.00 | 0.00 | 0.00 | 88 | 1018.1 |
| 20260507114046 | 43 | 80 | 0.9 | 0.9 | 0.00 | 0.00 | 0.00 | 88 | 1018.1 |
| 20260507113543 | 43 | 127 | 1.7 | 1.7 | 0.00 | 0.00 | 0.00 | 87 | 1017.9 |
| 20260507113041 | 42 | 122 | 0.0 | 1.7 | 0.00 | 0.00 | 0.00 | 87 | 1018.1 |
| 20260507112538 | 43 | 117 | 0.9 | 1.7 | 0.00 | 0.00 | 0.00 | 86 | 1017.9 |
| 20260507112035 | 43 | 89 | 0.0 | 1.7 | 0.00 | 0.00 | 0.00 | 85 | 1017.8 |
| 20260507111532 | 43 | 124 | 0.9 | 1.7 | 0.00 | 0.00 | 0.00 | 85 | 1017.8 |
| 20260507111029 | 43 | 124 | 1.7 | 1.7 | 0.00 | 0.00 | 0.00 | 86 | 1017.7 |
| 20260507110525 | 43 | 146 | 0.9 | 1.7 | 0.00 | 0.00 | 0.00 | 86 | 1017.8 |
| 20260507110021 | 43 | 127 | 1.7 | 1.7 | 0.00 | 0.00 | 0.00 | 87 | 1017.8 |
| 20260507105519 | 43 | 130 | 0.9 | 1.7 | 0.00 | 0.00 | 0.00 | 87 | 1017.8 |
| 20260507105009 | 42 | 73 | 0.0 | 1.7 | 0.00 | 0.00 | 0.00 | 86 | 1017.9 |
| 20260507104507 | 43 | 152 | 0.9 | 1.7 | 0.00 | 0.00 | 0.00 | 86 | 1018.2 |
| 20260507104002 | 43 | 154 | 0.0 | 1.7 | 0.00 | 0.00 | 0.00 | 85 | 1017.8 |
| 20260507103459 | 43 | 127 | 1.7 | 1.7 | 0.00 | 0.00 | 0.00 | 85 | 1017.9 |
| 20260507102955 | 43 | 116 | 0.9 | 1.7 | 0.00 | 0.00 | 0.00 | 86 | 1017.6 |
| 20260507102452 | 43 | 118 | 0.9 | 1.7 | 0.00 | 0.00 | 0.00 | 86 | 1017.7 |
| 20260507101948 | 42 | 108 | 0.9 | 1.7 | 0.00 | 0.00 | 0.00 | 87 | 1017.9 |
| 20260507101443 | 42 | 122 | 0.9 | 1.7 | 0.00 | 0.00 | 0.00 | 87 | 1017.9 |
| 20260507100940 | 42 | 123 | 1.7 | 2.6 | 0.00 | 0.00 | 0.00 | 86 | 1018.1 |
| 20260507100437 | 42 | 105 | 0.9 | 1.7 | 0.00 | 0.00 | 0.00 | 86 | 1017.9 |
| 20260507095935 | 42 | 141 | 0.9 | 1.7 | 0.00 | 0.00 | 0.00 | 85 | 1017.9 |
| 20260507095433 | 42 | 89 | 0.0 | 1.7 | 0.00 | 0.00 | 0.00 | 85 | 1017.9 |
| 20260507094925 | 42 | 112 | 0.9 | 1.7 | 0.00 | 0.00 | 0.00 | 85 | 1018.1 |
| 20260507094421 | 42 | 127 | 0.9 | 1.7 | 0.00 | 0.00 | 0.00 | 84 | 1018.1 |
| 20260507093918 | 43 | 96 | 0.9 | 0.9 | 0.00 | 0.00 | 0.00 | 84 | 1018.1 |
| 20260507093415 | 43 | 133 | 0.0 | 1.7 | 0.00 | 0.00 | 0.00 | 83 | 1018.1 |
| 20260507092913 | 43 | 124 | 0.0 | 1.7 | 0.00 | 0.00 | 0.00 | 82 | 1018.3 |
| 20260507092409 | 44 | 44 | 0.0 | 0.9 | 0.00 | 0.00 | 0.00 | 82 | 1018.3 |
| 20260507091906 | 44 | 122 | 0.9 | 0.9 | 0.00 | 0.00 | 0.00 | 83 | 1018.1 |
| 20260507091402 | 44 | 115 | 1.7 | 1.7 | 0.00 | 0.00 | 0.00 | 82 | 1018.2 |
| 20260507090859 | 44 | 99 | 0.9 | 1.7 | 0.00 | 0.00 | 0.00 | 82 | 1018.2 |
| 20260507090355 | 43 | 140 | 1.7 | 1.7 | 0.00 | 0.00 | 0.00 | 82 | 1018.4 |
| 20260507085852 | 43 | 80 | 0.0 | 0.9 | 0.00 | 0.00 | 0.00 | 84 | 1017.9 |
| 20260507085349 | 42 | 126 | 0.0 | 0.9 | 0.00 | 0.00 | 0.00 | 85 | 1018.2 |
| 20260507084846 | 42 | 84 | 0.9 | 1.7 | 0.00 | 0.00 | 0.00 | 84 | 1017.9 |
| 20260507084342 | 43 | 68 | 0.9 | 1.7 | 0.00 | 0.00 | 0.00 | 83 | 1018.3 |
| 20260507083840 | 43 | 119 | 0.0 | 0.9 | 0.00 | 0.00 | 0.00 | 83 | 1018.3 |
| 20260507083336 | 43 | 76 | 0.0 | 1.7 | 0.00 | 0.00 | 0.00 | 82 | 1018.3 |
| 20260507082833 | 43 | 89 | 0.0 | 0.9 | 0.00 | 0.00 | 0.00 | 83 | 1018.1 |
| 20260507082328 | 42 | 66 | 0.0 | 0.9 | 0.00 | 0.00 | 0.00 | 85 | 1018.3 |
| 20260507081825 | 42 | 75 | 0.0 | 0.9 | 0.00 | 0.00 | 0.00 | 85 | 1018.2 |
| 20260507081320 | 43 | 111 | 0.0 | 1.7 | 0.00 | 0.00 | 0.00 | 84 | 1018.1 |
| 20260507080818 | 43 | 93 | 0.9 | 1.7 | 0.00 | 0.00 | 0.00 | 83 | 1018.2 |
| 20260507080314 | 43 | 97 | 1.7 | 1.7 | 0.00 | 0.00 | 0.00 | 81 | 1018.2 |
| 20260507075809 | 43 | 89 | 0.9 | 1.7 | 0.00 | 0.00 | 0.00 | 80 | 1018.1 |
| 20260507075307 | 44 | 83 | 1.7 | 1.7 | 0.00 | 0.00 | 0.00 | 79 | 1018.3 |
| 20260507074802 | 44 | 85 | 0.9 | 1.7 | 0.00 | 0.00 | 0.00 | 78 | 1018.1 |
| 20260507074300 | 44 | 89 | 1.7 | 1.7 | 0.00 | 0.00 | 0.00 | 78 | 1018.3 |
| 20260507073757 | 45 | 88 | 1.7 | 1.7 | 0.00 | 0.00 | 0.00 | 77 | 1018.3 |
| 20260507073253 | 45 | 111 | 0.9 | 1.7 | 0.00 | 0.00 | 0.00 | 77 | 1018.4 |
| 20260507072751 | 46 | 92 | 0.0 | 1.7 | 0.00 | 0.00 | 0.00 | 75 | 1018.3 |
| 20260507072249 | 46 | 74 | 0.9 | 0.9 | 0.00 | 0.00 | 0.00 | 75 | 1018.4 |
| 20260507071746 | 46 | 89 | 0.0 | 1.7 | 0.00 | 0.00 | 0.00 | 73 | 1018.4 |
| 20260507071243 | 46 | 147 | 0.0 | 1.7 | 0.00 | 0.00 | 0.00 | 74 | 1018.4 |
| 20260507070740 | 46 | 150 | 0.0 | 1.7 | 0.00 | 0.00 | 0.00 | 75 | 1018.6 |
| 20260507070237 | 46 | 140 | 0.9 | 1.7 | 0.00 | 0.00 | 0.00 | 77 | 1018.6 |
| 20260507065733 | 46 | 89 | 0.0 | 0.9 | 0.00 | 0.00 | 0.00 | 80 | 1018.7 |
| 20260507065230 | 45 | 110 | 0.9 | 1.7 | 0.00 | 0.00 | 0.00 | 81 | 1018.7 |
| 20260507064727 | 44 | 150 | 0.0 | 1.7 | 0.00 | 0.00 | 0.00 | 82 | 1018.7 |
| 20260507064226 | 44 | 80 | 0.0 | 0.9 | 0.00 | 0.00 | 0.00 | 87 | 1018.9 |
| 20260507063723 | 44 | 38 | 0.9 | 1.7 | 0.00 | 0.00 | 0.00 | 88 | 1018.8 |
| 20260507063220 | 44 | 83 | 0.9 | 1.7 | 0.00 | 0.00 | 0.00 | 89 | 1019.0 |
| 20260507062716 | 44 | 79 | 1.7 | 1.7 | 0.00 | 0.00 | 0.00 | 90 | 1018.7 |
| 20260507062214 | 43 | 85 | 1.7 | 1.7 | 0.00 | 0.00 | 0.00 | 90 | 1018.9 |
| 20260507061712 | 43 | 88 | 1.7 | 1.7 | 0.00 | 0.00 | 0.00 | 92 | 1019.0 |
| 20260507061210 | 43 | 84 | 1.7 | 1.7 | 0.00 | 0.00 | 0.00 | 93 | 1018.8 |
| 20260507060708 | 43 | 84 | 1.7 | 1.7 | 0.00 | 0.00 | 0.00 | 93 | 1018.8 |
| 20260507060204 | 42 | 87 | 1.7 | 1.7 | 0.00 | 0.00 | 0.00 | 94 | 1018.9 |
| 20260507055700 | 42 | 92 | 1.7 | 1.7 | 0.00 | 0.00 | 0.00 | 94 | 1019.0 |
| 20260507055156 | 41 | 81 | 0.9 | 1.7 | 0.00 | 0.00 | 0.00 | 94 | 1018.8 |
| 20260507054651 | 41 | 70 | 1.7 | 1.7 | 0.00 | 0.00 | 0.00 | 94 | 1018.9 |
| 20260507054149 | 41 | 64 | 0.9 | 1.7 | 0.00 | 0.00 | 0.00 | 94 | 1018.9 |
| 20260507053646 | 41 | 47 | 0.9 | 1.7 | 0.00 | 0.00 | 0.00 | 95 | 1018.9 |
| 20260507053144 | 41 | 59 | 0.9 | 1.7 | 0.00 | 0.00 | 0.00 | 95 | 1018.9 |
| 20260507052642 | 41 | 55 | 0.0 | 0.9 | 0.00 | 0.00 | 0.00 | 95 | 1018.8 |
| 20260507052138 | 41 | 55 | 0.0 | 0.0 | 0.00 | 0.00 | 0.00 | 95 | 1018.7 |
| 20260507051636 | 40 | 321 | 0.0 | 0.9 | 0.00 | 0.00 | 0.00 | 95 | 1018.8 |
| 20260507051127 | 39 | 45 | 0.9 | 0.9 | 0.00 | 0.00 | 0.00 | 94 | 1018.8 |
| 20260507050624 | 39 | 89 | 0.0 | 0.9 | 0.00 | 0.00 | 0.00 | 93 | 1018.8 |
| 20260507050121 | 39 | 73 | 0.9 | 1.7 | 0.00 | 0.02 | 0.02 | 93 | 1018.8 |
| 20260507045617 | 40 | 67 | 0.9 | 1.7 | 0.00 | 0.02 | 0.02 | 93 | 1018.8 |
| 20260507045109 | 41 | 55 | 0.0 | 0.9 | 0.00 | 0.02 | 0.02 | 93 | 1019.0 |
| 20260507044605 | 41 | 124 | 0.0 | 0.0 | 0.00 | 0.02 | 0.02 | 93 | 1019.0 |
| 20260507044102 | 41 | 49 | 0.0 | 0.0 | 0.00 | 0.02 | 0.02 | 92 | 1018.9 |
| 20260507043558 | 41 | 76 | 0.0 | 0.9 | 0.00 | 0.02 | 0.02 | 92 | 1018.8 |
| 20260507043055 | 42 | 77 | 1.7 | 1.7 | 0.00 | 0.02 | 0.02 | 91 | 1018.7 |
| 20260507042551 | 42 | 84 | 1.7 | 2.6 | 0.00 | 0.02 | 0.02 | 91 | 1018.7 |
| 20260507042047 | 42 | 88 | 1.7 | 1.7 | 0.00 | 0.02 | 0.02 | 90 | 1018.7 |
| 20260507041544 | 41 | 84 | 1.7 | 1.7 | 0.00 | 0.02 | 0.02 | 88 | 1019.0 |
| 20260507041041 | 42 | 68 | 0.9 | 1.7 | 0.00 | 0.02 | 0.02 | 88 | 1019.2 |
| 20260507040537 | 42 | 64 | 0.0 | 1.7 | 0.00 | 0.02 | 0.02 | 88 | 1019.2 |
| 20260507040033 | 42 | 38 | 0.0 | 0.0 | 0.00 | 0.02 | 0.02 | 88 | 1019.0 |
| 20260507035529 | 42 | 67 | 0.0 | 0.9 | 0.00 | 0.02 | 0.02 | 88 | 1019.1 |
| 20260507035026 | 42 | 69 | 0.0 | 0.9 | 0.00 | 0.02 | 0.02 | 88 | 1019.2 |
| 20260507034523 | 42 | 58 | 0.0 | 1.7 | 0.00 | 0.02 | 0.02 | 87 | 1019.0 |
| 20260507034021 | 42 | 69 | 0.9 | 1.7 | 0.00 | 0.02 | 0.02 | 86 | 1019.0 |
| 20260507033519 | 42 | 54 | 0.0 | 0.9 | 0.00 | 0.02 | 0.02 | 85 | 1018.8 |
| 20260507033016 | 42 | 85 | 0.9 | 1.7 | 0.00 | 0.02 | 0.02 | 86 | 1018.9 |
| 20260507032513 | 42 | 78 | 0.9 | 0.9 | 0.00 | 0.02 | 0.02 | 86 | 1019.1 |
| 20260507032009 | 43 | 80 | 0.0 | 1.7 | 0.00 | 0.02 | 0.02 | 86 | 1018.9 |
| 20260507031505 | 43 | 60 | 0.0 | 0.0 | 0.00 | 0.02 | 0.02 | 85 | 1018.9 |
| 20260507031002 | 44 | 78 | 0.0 | 0.9 | 0.00 | 0.02 | 0.02 | 85 | 1019.0 |
| 20260507030459 | 44 | 122 | 0.0 | 0.9 | 0.00 | 0.02 | 0.02 | 84 | 1018.9 |
| 20260507025956 | 44 | 84 | 1.7 | 1.7 | 0.00 | 0.02 | 0.02 | 80 | 1018.9 |
| 20260507025453 | 44 | 73 | 1.7 | 1.7 | 0.00 | 0.02 | 0.02 | 78 | 1018.6 |
| 20260507024951 | 45 | 56 | 0.0 | 1.7 | 0.00 | 0.02 | 0.02 | 77 | 1018.7 |
| 20260507024448 | 45 | 55 | 0.0 | 0.9 | 0.00 | 0.02 | 0.02 | 77 | 1018.7 |
| 20260507023944 | 45 | 76 | 0.0 | 0.0 | 0.00 | 0.02 | 0.02 | 79 | 1018.8 |
| 20260507023441 | 46 | 55 | 0.0 | 0.0 | 0.00 | 0.02 | 0.02 | 77 | 1018.7 |
| 20260507022938 | 46 | 109 | 0.9 | 1.7 | 0.00 | 0.02 | 0.02 | 72 | 1018.5 |
| 20260507022436 | 47 | 63 | 1.7 | 1.7 | 0.00 | 0.02 | 0.02 | 70 | 1018.5 |
| 20260507021931 | 47 | 29 | 0.0 | 0.0 | 0.00 | 0.02 | 0.02 | 69 | 1018.5 |
| 20260507021426 | 47 | 113 | 0.0 | 0.9 | 0.00 | 0.02 | 0.02 | 72 | 1018.5 |
| 20260507020924 | 48 | 55 | 0.0 | 0.9 | 0.00 | 0.02 | 0.02 | 67 | 1018.4 |
| 20260507020421 | 48 | 326 | 0.0 | 0.0 | 0.00 | 0.02 | 0.02 | 65 | 1018.5 |
| 20260507015918 | 48 | 135 | 0.0 | 0.0 | 0.00 | 0.02 | 0.02 | 65 | 1018.6 |
| 20260507015416 | 48 | 81 | 0.0 | 1.7 | 0.00 | 0.02 | 0.02 | 61 | 1018.4 |
| 20260507014913 | 49 | 353 | 0.0 | 0.9 | 0.00 | 0.02 | 0.02 | 60 | 1018.4 |
| 20260507014409 | 50 | 22 | 0.0 | 0.9 | 0.00 | 0.02 | 0.02 | 62 | 1018.4 |
| 20260507013905 | 50 | 22 | 0.0 | 0.9 | 0.00 | 0.02 | 0.02 | 62 | 1018.2 |
| 20260507013403 | 51 | 32 | 0.0 | 0.9 | 0.00 | 0.02 | 0.02 | 54 | 1018.2 |
| 20260507012900 | 51 | 329 | 0.0 | 0.0 | 0.00 | 0.02 | 0.02 | 52 | 1018.1 |
| 20260507012355 | 52 | 329 | 0.0 | 0.0 | 0.00 | 0.02 | 0.02 | 53 | 1018.1 |
| 20260507011852 | 52 | 49 | 0.0 | 0.0 | 0.00 | 0.02 | 0.02 | 51 | 1017.8 |
| 20260507011349 | 53 | 59 | 1.7 | 1.7 | 0.00 | 0.02 | 0.02 | 47 | 1017.7 |
| 20260507010843 | 54 | 74 | 0.0 | 1.7 | 0.00 | 0.02 | 0.02 | 44 | 1017.6 |
| 20260507010340 | 55 | 334 | 0.0 | 2.6 | 0.00 | 0.02 | 0.02 | 43 | 1017.8 |
| 20260507005837 | 56 | 14 | 0.9 | 3.5 | 0.00 | 0.02 | 0.02 | 40 | 1017.7 |
| 20260507005334 | 56 | 341 | 2.6 | 3.5 | 0.00 | 0.02 | 0.02 | 39 | 1017.7 |
| 20260507004831 | 57 | 2 | 5.2 | 6.1 | 0.00 | 0.02 | 0.02 | 38 | 1017.7 |
| 20260507004328 | 57 | 19 | 2.6 | 3.5 | 0.00 | 0.02 | 0.02 | 38 | 1017.7 |
| 20260507003825 | 58 | 332 | 1.7 | 5.2 | 0.00 | 0.02 | 0.02 | 38 | 1017.7 |
| 20260507003320 | 59 | 328 | 6.1 | 7.0 | 0.00 | 0.02 | 0.02 | 36 | 1017.8 |
| 20260507002815 | 59 | 13 | 1.7 | 4.3 | 0.00 | 0.02 | 0.02 | 37 | 1017.6 |
| 20260507002311 | 59 | 45 | 3.5 | 4.3 | 0.00 | 0.02 | 0.02 | 35 | 1017.8 |
| 20260507001809 | 59 | 7 | 1.7 | 4.3 | 0.00 | 0.02 | 0.02 | 38 | 1017.7 |
| 20260507001306 | 58 | 50 | 4.3 | 4.3 | 0.00 | 0.02 | 0.02 | 37 | 1017.5 |
| 20260507000802 | 58 | 38 | 3.5 | 4.3 | 0.00 | 0.02 | 0.02 | 37 | 1017.5 |
| 20260507000259 | 58 | 356 | 3.5 | 5.2 | 0.00 | 0.02 | 0.02 | 36 | 1017.6 |
| 20260506235749 | 59 | 347 | 7.0 | 11.3 | 0.00 | 0.02 | 0.02 | 35 | 1017.5 |
| 20260506235244 | 59 | 0 | 3.5 | 9.6 | 0.00 | 0.02 | 0.02 | 36 | 1017.7 |
| 20260506234742 | 59 | 359 | 2.6 | 7.8 | 0.00 | 0.02 | 0.02 | 36 | 1017.7 |
| 20260506234239 | 59 | 324 | 4.3 | 6.1 | 0.00 | 0.02 | 0.02 | 36 | 1017.8 |
| 20260506233736 | 59 | 45 | 2.6 | 4.3 | 0.00 | 0.02 | 0.02 | 38 | 1017.7 |
| 20260506233232 | 59 | 0 | 3.5 | 8.7 | 0.00 | 0.02 | 0.02 | 35 | 1017.8 |
| 20260506232729 | 59 | 340 | 5.2 | 7.0 | 0.00 | 0.02 | 0.02 | 35 | 1017.6 |
| 20260506232224 | 60 | 0 | 2.6 | 5.2 | 0.00 | 0.02 | 0.02 | 40 | 1017.6 |
| 20260506231722 | 60 | 10 | 5.2 | 8.7 | 0.00 | 0.02 | 0.02 | 38 | 1017.6 |
| 20260506231220 | 60 | 296 | 5.2 | 8.7 | 0.00 | 0.02 | 0.02 | 36 | 1017.7 |
| 20260506230717 | 61 | 358 | 5.2 | 7.0 | 0.00 | 0.02 | 0.02 | 36 | 1017.5 |
| 20260506230214 | 61 | 345 | 2.6 | 8.7 | 0.00 | 0.02 | 0.02 | 34 | 1017.6 |
| 20260506225710 | 61 | 10 | 3.5 | 5.2 | 0.00 | 0.02 | 0.02 | 36 | 1017.7 |
| 20260506225207 | 61 | 21 | 3.5 | 8.7 | 0.00 | 0.02 | 0.02 | 35 | 1017.6 |
| 20260506224703 | 61 | 17 | 1.7 | 5.2 | 0.00 | 0.02 | 0.02 | 37 | 1017.7 |
| 20260506224201 | 61 | 281 | 2.6 | 10.4 | 0.00 | 0.02 | 0.02 | 35 | 1017.7 |
| 20260506223657 | 62 | 352 | 3.5 | 3.5 | 0.00 | 0.02 | 0.02 | 36 | 1017.6 |
| 20260506223153 | 61 | 16 | 0.9 | 7.0 | 0.00 | 0.02 | 0.02 | 38 | 1017.8 |
| 20260506222650 | 61 | 18 | 4.3 | 7.8 | 0.00 | 0.02 | 0.02 | 35 | 1017.4 |
| 20260506222145 | 61 | 54 | 2.6 | 4.3 | 0.00 | 0.02 | 0.02 | 36 | 1017.7 |
| 20260506221644 | 60 | 348 | 5.2 | 6.1 | 0.00 | 0.02 | 0.02 | 36 | 1017.6 |
| 20260506221141 | 61 | 23 | 4.3 | 5.2 | 0.00 | 0.02 | 0.02 | 37 | 1017.9 |
| 20260506220638 | 61 | 17 | 4.3 | 7.8 | 0.00 | 0.02 | 0.02 | 35 | 1017.8 |
| 20260506220133 | 61 | 340 | 3.5 | 5.2 | 0.00 | 0.02 | 0.02 | 34 | 1017.7 |
| 20260506215629 | 61 | 324 | 4.3 | 6.1 | 0.00 | 0.02 | 0.02 | 36 | 1017.8 |
| 20260506215125 | 61 | 19 | 0.9 | 7.0 | 0.00 | 0.02 | 0.02 | 35 | 1018.1 |
| 20260506214622 | 60 | 46 | 6.1 | 9.6 | 0.00 | 0.02 | 0.02 | 34 | 1017.9 |
| 20260506214119 | 60 | 261 | 1.7 | 9.6 | 0.00 | 0.02 | 0.02 | 39 | 1018.2 |
| 20260506213618 | 61 | 348 | 4.3 | 5.2 | 0.00 | 0.02 | 0.02 | 36 | 1018.4 |
| 20260506213114 | 60 | 40 | 7.0 | 10.4 | 0.00 | 0.02 | 0.02 | 35 | 1018.2 |
| 20260506212612 | 60 | 4 | 3.5 | 10.4 | 0.00 | 0.02 | 0.02 | 35 | 1018.3 |
| 20260506212106 | 61 | 92 | 3.5 | 7.0 | 0.00 | 0.02 | 0.02 | 33 | 1018.1 |
| 20260506211602 | 60 | 37 | 5.2 | 7.8 | 0.00 | 0.02 | 0.02 | 36 | 1018.4 |
| 20260506211100 | 60 | 356 | 7.0 | 12.2 | 0.00 | 0.02 | 0.02 | 36 | 1018.3 |
| 20260506210556 | 60 | 355 | 5.2 | 7.8 | 0.00 | 0.02 | 0.02 | 36 | 1018.2 |
| 20260506210053 | 60 | 275 | 7.8 | 9.6 | 0.00 | 0.02 | 0.02 | 36 | 1018.5 |
| 20260506205550 | 59 | 331 | 10.4 | 13.0 | 0.00 | 0.02 | 0.02 | 36 | 1018.6 |
| 20260506205044 | 59 | 288 | 2.6 | 13.9 | 0.00 | 0.02 | 0.02 | 37 | 1018.6 |
| 20260506204543 | 59 | 358 | 6.1 | 8.7 | 0.00 | 0.02 | 0.02 | 38 | 1018.7 |
| 20260506204039 | 59 | 358 | 10.4 | 13.0 | 0.00 | 0.02 | 0.02 | 35 | 1018.7 |
| 20260506203538 | 60 | 35 | 5.2 | 10.4 | 0.00 | 0.02 | 0.02 | 37 | 1019.0 |
| 20260506203034 | 59 | 4 | 4.3 | 5.2 | 0.00 | 0.02 | 0.02 | 35 | 1018.8 |
| 20260506202532 | 60 | 316 | 9.6 | 11.3 | 0.00 | 0.02 | 0.02 | 34 | 1019.0 |